Satellite: NOAA-19
Catalog number: 33591
Epoch time:      09113.70746783
Element set:      79
Inclination:      098.7431 deg
RA of node:       060.8966 deg
Eccentricity:    0.0014935
Arg of perigee:   040.9051 deg
Mean anomaly:     319.3234 deg
Mean motion:   14.10950253 rev/day
Decay rate:       -4.0e-08 rev/day^2
Epoch rev:            1075
Checksum:              296

/EX
SB KEPS @ AMSAT  $ORB09113.M
Orbital Elements  09113.MISC

HR AMSAT ORBITAL ELEMENTS FOR MANNED AND MISCELLANEOUS SATELLITES
FROM WA5QGD FORT WORTH,TX April 23, 2009
Send Subscribe/unsubscribe to KEPS at 
http://www.amsat.org/mailman/listinfo/keps
BID: ORB09113.M
TO ALL RADIO AMATEURS BT

Satellite: HUBBLE
Catalog number: 20580
Epoch time:      09112.38084535
Element set:    0376
Inclination:      028.4689 deg
RA of node:       106.4394 deg
Eccentricity:    0.0003724
Arg of perigee:   072.6606 deg
Mean anomaly:     287.4389 deg
Mean motion:   15.00476624 rev/day
Decay rate:       2.99e-06 rev/day^2
Epoch rev:           84146
Checksum:              315

Satellite: PO-34
Catalog number: 25520
Epoch time:      09112.74314574
Element set:    0233
Inclination:      028.4597 deg
RA of node:       266.1350 deg
Eccentricity:    0.0005130
Arg of perigee:   063.4718 deg
Mean anomaly:     296.6416 deg
Mean motion:   15.17326302 rev/day
Decay rate:       4.81e-06 rev/day^2
Epoch rev:           58022
Checksum:              277

Satellite: ISS
Catalog number: 25544
Epoch time:      09112.79661553
Element set:     723
Inclination:      051.6404 deg
RA of node:       230.8937 deg
Eccentricity:    0.0008684
Arg of perigee:   272.5117 deg
Mean anomaly:     234.2690 deg
Mean motion:   15.72359056 rev/day
Decay rate:     1.4089e-04 rev/day^2
Epoch rev:           59723
Checksum:              314

Satellite: CO-58
Catalog number: 28895
Epoch time:      09112.67974867
Element set:    0284
Inclination:      098.0663 deg
RA of node:       004.8318 deg
Eccentricity:    0.0018293
Arg of perigee:   158.5267 deg
Mean anomaly:     201.6702 deg
Mean motion:   14.59760157 rev/day
Decay rate:        2.6e-07 rev/day^2
Epoch rev:           18563
Checksum:              344

Satellite: FALCON
Catalog number: 30776
Epoch time:      09112.97272584
Element set:    0559
Inclination:      035.4328 deg
RA of node:       074.3980 deg
Eccentricity:    0.0000684
Arg of perigee:   216.5253 deg
Mean anomaly:     143.5417 deg
Mean motion:   15.03220856 rev/day
Decay rate:       4.31e-06 rev/day^2
Epoch rev:           11678
Checksum:              294

Satellite: MAST
Catalog number: 31126
Epoch time:      09112.68707682
Element set:    0577
Inclination:      097.9954 deg
RA of node:       170.0205 deg
Eccentricity:    0.0095843
Arg of perigee:   092.3492 deg
Mean anomaly:     268.8661 deg
Mean motion:   14.53490783 rev/day
Decay rate:        2.7e-07 rev/day^2
Epoch rev:           10697
Checksum:              328

Satellite: CAPE1
Catalog number: 31130
Epoch time:      09112.80882192
Element set:     582
Inclination:      097.9957 deg
RA of node:       168.4439 deg
Eccentricity:    0.0104257
Arg of perigee:   096.9934 deg
Mean anomaly:     264.3120 deg
Mean motion:   14.52051457 rev/day
Decay rate:       1.14e-06 rev/day^2
Epoch rev:           10665
Checksum:              300

Satellite: COMPASS
Catalog number: 32787
Epoch time:      09113.73555708
Element set:     339
Inclination:      097.9431 deg
RA of node:       178.0079 deg
Eccentricity:    0.0015155
Arg of perigee:   205.9613 deg
Mean anomaly:     154.0839 deg
Mean motion:   14.81582379 rev/day
Decay rate:        8.2e-07 rev/day^2
Epoch rev:            5338
Checksum:              321

Satellite: AAUSAT2
Catalog number: 32788
Epoch time:      09113.84299413
Element set:     339
Inclination:      097.9477 deg
RA of node:       178.1667 deg
Eccentricity:    0.0014612
Arg of perigee:   205.8474 deg
Mean anomaly:     154.1964 deg
Mean motion:   14.81703789 rev/day
Decay rate:       -8.5e-07 rev/day^2
Epoch rev:            5340
Checksum:              336

Satellite: DO-64
Catalog number: 32789
Epoch time:      09113.72875745
Element set:     348
Inclination:      097.9512 deg
RA of node:       178.1811 deg
Eccentricity:    0.0014983
Arg of perigee:   205.5666 deg
Mean anomaly:     154.4806 deg
Mean motion:   14.81671805 rev/day
Decay rate:       1.65e-06 rev/day^2
Epoch rev:            5338
Checksum:              338

Satellite: CO-66
Catalog number: 32791
Epoch time:      09113.70465972
Element set:     330
Inclination:      097.9478 deg
RA of node:       178.0091 deg
Eccentricity:    0.0015199
Arg of perigee:   205.0311 deg
Mean anomaly:     155.0157 deg
Mean motion:   14.81417989 rev/day
Decay rate:       2.37e-06 rev/day^2
Epoch rev:            5334
Checksum:              314

Satellite: RS-30
Catalog number: 32953
Epoch time:      09112.57137011
Element set:    0288
Inclination:      082.4977 deg
RA of node:       291.2031 deg
Eccentricity:    0.0018295
Arg of perigee:   301.8215 deg
Mean anomaly:     058.1081 deg
Mean motion:   12.43000401 rev/day
Decay rate:        1.0e-07 rev/day^2
Epoch rev:           04148
Checksum:              248

/EX



_______________________________________________
Via the Keps mailing list courtesy of AMSAT-NA
http://amsat.org/mailman/listinfo/keps

--- ViaMAIL!/WC v1.60d
 * Origin: Chowdanet (401-724-4410) telnet://chowdanet.com  (1:323/120)